Voltar ao catálogo

STARLINK-35316

AtivoComunicaçõesVLEO
NORAD 65742·PAYLOAD·🇺🇸 United States

Lançado Sep 25, 2025 de Cape Canaveral Space Force Station

Loading…

Próximas Passagens (próximas 24 horas)

TLE

AtualizadoSource: CelesTrak SupGP

Época: Sep 14, 2026, 21:33 UTC

1 65742C 25216J   26257.89840278 -.00022530  00000+0 -66563-3 0  2577
2 65742  53.1577 171.6990 0001302  93.0832 326.5873 15.34402426    14

Acompanhe STARLINK-35316 em tempo real com AllMySat

Download on the App Store